Regional Weather Roundup
Issued by NWS

Home | Current Version | Previous Version | Graphics & Text | Print | Product List | Glossary On
Versions: 1 2 3 4 5 6 7 8 9 10 11 12 13 14 15 16 17 18 19 20 21 22 23 24 25 26 27 28 29 30 31 32 33 34 35 36 37 38 39 40 41 42 43 44 45 46 47 48 49 50
000
ASUS43 KLOT 251508
RWRIL

ILLINOIS REGIONAL WEATHER ROUNDUP
NATIONAL WEATHER SERVICE CHICAGO/ROMEOVILLE IL
900 AM CST SUN FEB 25 2018

NOTE: "FAIR" INDICATES FEW OR NO CLOUDS BELOW 12,000 FEET WITH NO
SIGNIFICANT WEATHER AND/OR OBSTRUCTIONS TO VISIBILITY.

* THESE STATIONS ARE NOT UNDER NWS QUALITY CONTROL. THEY ALSO MAY NOT
  REPORT WEATHER SUCH AS PRECIPITATION OR FOG.

ILZ001-002-007-009-015-016-024-251600-
NORTHWEST ILLINOIS

CITY           SKY/WX    TMP DP  RH WIND       PRES   REMARKS
MOLINE         FAIR      34  22  61 W17G26    29.92R WCI  23
STERLING*      FAIR      31  24  75 W23G30    29.89R WCI  18
SAVANNA*       FAIR      30  22  70 W15G21    29.88R WCI  19
$$

ILZ003-004-008-010-011-017-018-251600-
NORTH CENTRAL ILLINOIS

CITY           SKY/WX    TMP DP  RH WIND       PRES   REMARKS
ROCKFORD       FAIR      32  23  69 W14G22    29.85R WCI  22
FREEPORT*      FAIR      28  20  72 W18G26    29.86R WCI  15
ROCHELLE*      FAIR      32  26  77 W20       29.87R WCI  20
DE KALB*       PTSUNNY   32  26  78 W20G29    29.86R WCI  20
PERU*          FAIR      33  25  72 W21       29.92R WCI  21
$$

ILZ005-006-012>014-019>023-251600-
NORTHEAST ILLINOIS

CITY           SKY/WX    TMP DP  RH WIND       PRES   REMARKS
CHICAGO-OHARE  PTSUNNY   35  25  66 W18G32    29.83R WCI  24
CHICAGO-MIDWAY PTSUNNY   36  28  73 SW23G31   29.86R WCI  24
AURORA         FAIR      34  27  75 SW17G30   29.86R WCI  23
LANSING*       CLOUDY    35  30  82 SW21      29.89R WCI  24
JOLIET*        PTSUNNY   37  28  71 W13G24    29.89R WCI  28
WAUKEGAN       FAIR      35  25  66 W14G26    29.78R WCI  26
DUPAGE AIRPORT PTSUNNY   35  28  75 SW17G28   29.84R WCI  25
KANKAKEE*      CLOUDY    36  29  76 W22G28    29.94R WCI  24
WHEELING       FAIR      36  25  64 SW16G23   29.84R WCI  26
MORRIS*        PTSUNNY   36  28  75 W22       29.89R WCI  24
ROMEOVILLE*    CLOUDY    35  29  80 SW21      29.88R WCI  24
NORTHERLY ISL    N/A     35  24  64 SW23        N/A  WCI  23
$$

LMZ740>746-251600-
SOUTHERN LAKE MICHIGAN

STATION/POSITION SKY/WX   TEMP    WIND        PRES    VSBY  WAVE
                          AIR SEA DIR/SP/G                  HT/PER
                          (F)     (DEG/KT/KT) (MB)    (MI)  (FT/S)
HARRISON CRIB              36     240/ 19/ 23   N/A
BURNHAM HARBOR             36     240/  9/ 20   N/A
CALUMET HARBOR             36     230/ 15/ 22 1010.6R
BURNS HARBOR               36     240/ 17/ 25 1012.2R
MICHIGAN CITY              35     220/ 28/ 32   N/A
$$

ILZ025>027-034>036-040-047-049-050-058-095>099-251600-
WEST-CENTRAL ILLINOIS

CITY           SKY/WX    TMP DP  RH WIND       PRES   REMARKS
QUINCY         SUNNY     34  23  64 W9        30.00R WCI  27
GALESBURG*     FAIR      33  25  73 W15       29.96R WCI  23
MACOMB*        SUNNY    N/A N/A N/A W14       29.99R
JACKSONVILLE*  SUNNY     35  26  69 W9        30.02R WCI  27
PITTSFIELD*    SUNNY     35  26  69 W7        30.04R WCI  29
$$

ILZ028>032-037-038-041>044-048-051>054-059>061-251600-
CENTRAL ILLINOIS

CITY           SKY/WX    TMP DP  RH WIND       PRES   REMARKS
PONTIAC        PTSUNNY   36  31  85 W20       29.95R WCI  25
BLOOMINGTON    PTSUNNY   34  28  79 W17       29.96R WCI  23
DECATUR        PTSUNNY   37  29  72 W12G23    30.01R WCI  29
PEORIA         FAIR      35  27  72 W12       29.96R WCI  27
LACON*         FAIR      35  26  71 W10G17    29.95R WCI  27
LINCOLN*       FAIR      37  29  75 W6        29.99R WCI  32
SPRINGFIELD    FAIR      37  28  70 W13       30.02R WCI  29
TAYLORVILLE    FAIR      36  30  79 W15       30.03R WCI  27
$$

ILZ033-039-045-046-055>057-062-063-251600-
EAST-CENTRAL ILLINOIS

CITY           SKY/WX    TMP DP  RH WIND       PRES   REMARKS
CHAMPAIGN      CLOUDY    36  31  82 W18G25    29.99R WCI  26
DANVILLE*      CLOUDY    35  29  80 SW14      29.97R WCI  26
RANTOUL*       CLOUDY    37  31  81 W13G18    29.98R WCI  28
MATTOON        FAIR      39  31  72 SW13G23   30.02R WCI  31
PARIS*         PTSUNNY   38  33  82 SW15G21   30.03R WCI  29
$$

ILZ079-100>102-251600-
SOUTHWEST ILLINOIS

CITY           SKY/WX    TMP DP  RH WIND       PRES   REMARKS
ALTON          MOSUNNY   39  36  87 SW10      30.07R WCI  32
BELLEVILLE     SUNNY     40  32  73 SW13      30.07R
CAHOKIA*       MOSUNNY   38  31  76 SW7       30.08R WCI  33
SPARTA*        CLOUDY    37  33  84 SW7       30.11R WCI  32
$$

ILZ064>066-069>071-074>076-080>082-084>086-088>090-092>094-251600-
SOUTH-CENTRAL ILLINOIS

CITY           SKY/WX    TMP DP  RH WIND       PRES   REMARKS
CARBONDALE     FAIR      41  33  73 W10       30.12R
CAIRO*         FAIR      43  36  76 SW5       30.14R
EFFINGHAM*     FAIR      39  33  79 SW16      30.07R WCI  30
MARION         PTSUNNY   41  30  65 W6        30.12R
MT. VERNON     FAIR      40  32  73 SW13      30.09R
CENTRALIA*     MOSUNNY   39  34  81 SW13G18   30.07R WCI  32
SALEM*         FAIR      40  32  75 SW12G18   30.07S
METROPOLIS*    FAIR      45  32  61 W7        30.14R
$$

ILZ067-068-072-073-078-083-087-091-251600-
SOUTHEAST ILLINOIS

CITY           SKY/WX    TMP DP  RH WIND       PRES   REMARKS
LAWRENCEVILLE  FAIR      43  33  68 W14       30.06F
FLORA*         FAIR      40  33  75 SW14      30.07S
FAIRFIELD*     FAIR      41  32  72 MISG      30.07F
HARRISBURG*    FAIR      43  35  73 W9        30.12R
ROBINSON*      FAIR      39  33  79 SW14      30.06S WCI  30
CARMI*         FAIR      42  34  73 W10       30.09R
$$

ABBREVIATIONS USED IN REMARKS
   TC - TEMPERATURE IN CELSIUS
  WCI - WIND CHILL INDEX
   HX - HEAT INDEX
  VSB - VISIBILITY
$$





USA.gov is the U.S. government's official web portal to all federal, state and local government web resources and services.